Location: Angwan Shehu
(11.2514°N, 7.4613°E)
Time: 06:55:14
(UTC+00:00)

SR - Pass Details

Date: 22 April 2021
Orbit: 573 x 882 km, 66.7° (Epoch: 12 May)

Event Time Altitude Azimuth Distance (km) Brightness Sun altitude
Rises 06:27:35 0° 243° (WSW) 3,170 ? 16.6°
Reaches altitude 10° 06:31:21 10° 272° (W) 2,321 ? 17.5°
Maximum altitude 06:33:38 13° 297° (WNW) 2,176 ? 18.0°
Drops below altitude 10° 06:35:59 10° 323° (NW) 2,402 ? 18.6°
Sets 06:40:04 0° 350° (N) 3,395 ? 19.6°
